STARLINK-1404, 45686

Orbit data source: Space-Track

STARLINK-1404, 45686 is a payload satellite owned by SpaceX/Seattle (US) in LEO that was launched on Thu, 04 Jun 2020 UTC via an FALCON 9 launch vehicle from the Air Force Eastern Test Range (AFETR). Payload-class satellites include a variety of spacecraft equipped with specific instruments for various scientific and technological missions. These include communications satellites like Starlink; space stations such as the ISS; scientific satellites like the Hubble; Earth observation satellites from companies like Planet Labs, Umbra, and HawkEye 360; GPS; miniature CubeSats for education and research; and military/defense satellites.

Loading next visibility...
Identifier
45686, 2020-035AF
Orbit
LEO
Country
Flag of USUS
Related business
Manufacturer
SpaceX/Seattle
Mission
Partially operational Commercial Communications
Bus & Motor
STARLINK, Unknown motor
Mass
260 kg wet, ~248 kg dry
Launch date (UTC)
2020-06-04 (6 years ago)
Launch vehicle
FALCON 9
Launch site
Air Force Eastern Test Range (AFETR)
Object type
Payload
Rocket body
Debris
Shape & HBR
Box + 1 Pan, 10.1 m
Radar Cross Section
13.562 m², Large (>1 m²)

Expand to show TLE details & history
Last TLE update: 7 hours ago

TLE from 7 hours ago
0 STARLINK-1404
1 45686U 20035AF  26095.22859560  .00031158  00000-0  83517-3 0  9993
2 45686  53.1595 285.8831 0000466  59.5724 300.5326 15.37744654323049
Epoch: 2026-04-05T05:29Z
TLE epoch observation values (Epoch: 2026-04-05T05:29:10.659Z)
Latitude
-0.00004°
Longitude
10.05163°
Altitude
453.521 km
Speed
7.642 km/s
True Right ascension
19h 03m 31s
True Declination
0° 00' 00"
Sunlit
Object was in daylight at epoch
Visualization orbit readout
Latitude
Unknown
Longitude
Unknown
Altitude
Unknown
Speed
Unknown
Apparent Right ascension
Unknown
Apparent Declination
Unknown
Sunlit
N/A
Visualization observer readout
Local Sidereal Time
18:00:31
Azimuth
Unknown
Elevation
Unknown
Doppler factor
Unknown
Orbital elements
Apogee altitude
453.356 km
Perigee altitude
452.719 km
Semi-major axis
6,831.175 km
Eccentricity
0.00005
Inclination
53.1595°
RAAN
285.8831°
Arg. of periapsis
59.5724°
True anomaly
300.528°
Mean anomaly
300.5326°
Eccentric anomaly
300.5303°
Mean motion
3.84415 °/min
Orbital period
93.65 mins
BSTAR
0.00083517
Loading maneuver chart data...
Computing Atmospheric mass density...
Loading historical data...
Loading historical data...
Loading historical data...
Loading historical data...
Loading historical data...
Loading historical data...
Loading historical data...

Documentation

Showing up to 5 results
|